Weather History for KGSO - September, 2011

Change the Weather History Date:

Tuesday, September 13, 2011

  Actual Average Record
Temperature  
Mean Temperature 74 °F 71 °F  
Max Temperature 86 °F 81 °F 96 °F (1915)
Min Temperature 62 °F 62 °F 45 °F (1985)
Degree Days  
Heating Degree Days 0 1  
Month to date heating degree days 0 1  
Since 1 July heating degree days 0 2  
Cooling Degree Days 9 7  
Month to date cooling degree days 130 109  
Year to date cooling degree days 1702 1371  
Growing Degree Days 23 (Base 50)    
Moisture  
Dew Point 58 °F    
Average Humidity 64    
Maximum Humidity 90    
Minimum Humidity 37    
Precipitation  
Precipitation 0.00 in 0.15 in 3.01 in (2006)
Month to date precipitation 3.14 1.97  
Year to date precipitation 25.36 30.76  
Sea Level Pressure  
Sea Level Pressure 30.00 in    
Wind  
Wind Speed 2 mph (WNW)    
Max Wind Speed 10 mph    
Max Gust Speed 14 mph    
Visibility 10 miles    
Events      
T = Trace of Precipitation, MM = Missing Value Source: NWS Daily Summary

Daily Weather History Graph

Daily Weather History Graph

Search for Another Location

Airport or City:

Trip Planner

Search our weather history database for the weather conditions in past years. The results will help you decide how hot, cold, wet, or windy it might be!

Date:

Astronomy

Sep. 13, 2011 Rise Set
Actual Time 7:00 AM EDT 7:30 PM EDT
Civil Twilight 6:34 AM EDT 7:56 PM EDT
Nautical Twilight 6:04 AM EDT 8:26 PM EDT
Astronomical Twilight 5:33 AM EDT 8:57 PM EDT
Moon 7:50 PM EDT (9/13) 8:08 AM EDT (9/13)
Length of Visible Light 13h 21m
Length of Day
12h 29m
Full, 99% of the Moon is Illuminated
Sep 13
Full
Sep 20
Last Quarter
Sep 27
New
Oct 3
First Quarter
Oct 11
Full

Hourly Weather History & Observations

Time (EDT) Temp. Heat Index Dew Point Humidity Pressure Visibility Wind Dir Wind Speed Gust Speed Precip Events Conditions
12:54 AM 66.9 °F - 60.1 °F 79% 30.02 in 10.0 mi NW 3.5 mph - N/A   Clear
1:54 AM 66.0 °F - 60.1 °F 81% 30.01 in 10.0 mi NNW 3.5 mph - N/A   Clear
2:54 AM 64.0 °F - 59.0 °F 84% 30.01 in 10.0 mi Calm Calm - N/A   Clear
3:54 AM 64.0 °F - 59.0 °F 84% 30.01 in 10.0 mi Calm Calm - N/A   Clear
4:54 AM 63.0 °F - 59.0 °F 87% 30.00 in 10.0 mi Calm Calm - N/A   Clear
5:54 AM 64.0 °F - 59.0 °F 84% 30.01 in 10.0 mi Calm Calm - N/A   Clear
6:54 AM 62.1 °F - 59.0 °F 90% 30.02 in 10.0 mi Calm Calm - N/A   Clear
7:54 AM 64.9 °F - 60.1 °F 84% 30.03 in 10.0 mi Calm Calm - N/A   Clear
8:54 AM 73.0 °F - 61.0 °F 66% 30.02 in 10.0 mi Calm Calm - N/A   Clear
9:54 AM 75.9 °F - 60.1 °F 58% 30.04 in 10.0 mi North 4.6 mph - N/A   Clear
10:54 AM 78.1 °F - 61.0 °F 56% 30.04 in 10.0 mi Calm Calm - N/A   Clear
11:54 AM 81.0 °F 81.0 °F 57.0 °F 44% 30.04 in 10.0 mi West 4.6 mph - N/A   Clear
12:54 PM 82.9 °F 82.6 °F 57.9 °F 42% 30.02 in 10.0 mi WNW 6.9 mph - N/A   Scattered Clouds
1:54 PM 84.0 °F 83.5 °F 57.9 °F 41% 30.01 in 10.0 mi WNW 8.1 mph - N/A   Scattered Clouds
2:54 PM 84.9 °F 83.9 °F 57.0 °F 38% 29.99 in 10.0 mi Variable 3.5 mph - N/A   Scattered Clouds
3:54 PM 84.0 °F 83.3 °F 57.0 °F 40% 29.97 in 10.0 mi WSW 5.8 mph - N/A   Partly Cloudy
4:54 PM 84.9 °F 83.7 °F 55.9 °F 37% 29.96 in 10.0 mi West 8.1 mph - N/A   Partly Cloudy
5:54 PM 84.0 °F 82.9 °F 55.0 °F 37% 29.96 in 10.0 mi WNW 5.8 mph - N/A   Partly Cloudy
6:54 PM 81.0 °F 81.0 °F 57.0 °F 44% 29.96 in 10.0 mi WNW 3.5 mph - N/A   Partly Cloudy
7:54 PM 78.1 °F - 55.9 °F 46% 29.96 in 10.0 mi NW 3.5 mph - N/A   Clear
8:54 PM 75.0 °F - 57.0 °F 53% 29.98 in 10.0 mi Calm Calm - N/A   Clear
9:54 PM 73.0 °F - 59.0 °F 61% 29.99 in 10.0 mi Calm Calm - N/A   Clear
10:54 PM 71.1 °F - 59.0 °F 66% 29.99 in 10.0 mi Calm Calm - N/A   Clear
11:54 PM 70.0 °F - 60.1 °F 71% 29.98 in 10.0 mi Calm Calm - N/A   Clear